Weather History for Rantoul, IL

Change the Weather History Date:

Wednesday, August 21, 2013

  Actual Average (KCMI) Record (KCMI)
Temperature  
Mean Temperature 72 °F 72 °F  
Max Temperature 91 °F 83 °F 93 °F (2003)
Min Temperature 63 °F 61 °F 48 °F (2004)
Degree Days  
Heating Degree Days 0 0  
Month to date heating degree days 0  
Since 1 June heating degree days 19  
Since 1 July heating degree days 2  
Cooling Degree Days 8 7  
Month to date cooling degree days 164  
Year to date cooling degree days 761  
Since 1 June cooling degree days 669  
Growing Degree Days 22 (Base 50)    
Moisture  
Dew Point 64 °F    
Average Humidity 82    
Maximum Humidity 91    
Minimum Humidity 36    
Precipitation  
Precipitation 0.00 in 0.14 in 0.40 in (2010)
Month to date precipitation 2.21  
Year to date precipitation 25.88  
Sea Level Pressure  
Sea Level Pressure 30.12 in    
Wind  
Wind Speed 1 mph (South)    
Max Wind Speed 7 mph    
Max Gust Speed -    
Visibility 5 miles    
Events      
T = Trace of Precipitation, MM = Missing Value Source: NWS Daily Summary

Daily Weather History Graph

Daily Weather History Graph

Search for Another Location

Airport:

Trip Planner

Search our weather history database for the weather conditions in past years. The results will help you decide how hot, cold, wet, or windy it might be!

Date:

Astronomy

Aug. 21, 2013 Rise Set
Actual Time 6:09 AM CDT 7:40 PM CDT
Civil Twilight 5:41 AM CDT 8:09 PM CDT
Nautical Twilight 5:06 AM CDT 8:43 PM CDT
Astronomical Twilight 4:29 AM CDT 9:20 PM CDT
Moon 7:49 PM CDT (8/21) 6:49 AM CDT (8/21)
Length of Visible Light 14h 28m
Length of Day
13h 31m
Waxing Gibbous, 99% of the Moon is Illuminated
Aug 21
Waxing Gibbous
Aug 28
Last Quarter
Sep 5
New
Sep 12
First Quarter
Sep 19
Full

Hourly Weather History & Observations

Time (CDT) Temp. Heat Index Dew Point Humidity Pressure Visibility Wind Dir Wind Speed Gust Speed Precip Events Conditions
12:35 AM 69.3 °F - 65.1 °F 87% 30.11 in 5.0 mi Calm Calm - N/A   Clear
12:55 AM 68.9 °F - 64.8 °F 87% 30.11 in 5.0 mi Calm Calm - N/A   Clear
1:15 AM 68.9 °F - 64.9 °F 87% 30.11 in 5.0 mi Calm Calm - N/A   Clear
1:35 AM 68.5 °F - 65.3 °F 89% 30.11 in 4.0 mi SE 5.8 mph - N/A   Clear
1:55 AM 68.0 °F - 64.4 °F 88% 30.11 in 4.0 mi Calm Calm - N/A   Clear
2:15 AM 68.9 °F - 64.0 °F 84% 30.11 in 5.0 mi Calm Calm - N/A   Haze
2:35 AM 67.3 °F - 63.1 °F 87% 30.11 in 5.0 mi Calm Calm - N/A   Clear
2:55 AM 67.3 °F - 63.1 °F 87% 30.11 in 5.0 mi SSE 3.5 mph - N/A   Clear
3:15 AM 66.6 °F - 62.6 °F 87% 30.11 in 5.0 mi Calm Calm - N/A   Clear
3:35 AM 66.0 °F - 62.4 °F 88% 30.11 in 4.0 mi SSE 3.5 mph - N/A   Clear
4:15 AM 65.7 °F - 62.6 °F 90% 30.10 in 4.0 mi SE 3.5 mph - N/A   Clear
4:35 AM 65.1 °F - 62.1 °F 90% 30.11 in 3.0 mi Calm Calm - N/A   Clear
4:55 AM 66.0 °F - 62.6 °F 89% 30.11 in 4.0 mi Calm Calm - N/A   Clear
5:15 AM 65.3 °F - 62.1 °F 89% 30.11 in 3.0 mi Calm Calm - N/A   Clear
5:35 AM 64.6 °F - 61.9 °F 91% 30.11 in 2.5 mi Calm Calm - N/A   Clear
5:55 AM 64.4 °F - 61.7 °F 91% 30.12 in 3.0 mi Calm Calm - N/A   Clear
6:15 AM 63.9 °F - 60.4 °F 89% 30.12 in 2.5 mi Calm Calm - N/A   Clear
6:35 AM 65.3 °F - 62.4 °F 90% 30.13 in 2.5 mi Calm Calm - N/A   Clear
6:55 AM 66.2 °F - 63.1 °F 90% 30.13 in 2.5 mi Calm Calm - N/A   Clear
7:15 AM 67.6 °F - 64.0 °F 88% 30.13 in 3.0 mi Calm Calm - N/A   Clear
7:35 AM 69.1 °F - 64.8 °F 86% 30.14 in 5.0 mi Calm Calm - N/A   Clear
7:55 AM 70.0 °F - 65.3 °F 85% 30.15 in 5.0 mi Calm Calm - N/A   Haze
8:35 AM 75.4 °F - 67.1 °F 75% 30.15 in 10.0 mi SSW 3.5 mph - N/A   Clear
8:55 AM 77.9 °F - 67.3 °F 70% 30.15 in 10.0 mi SSW 3.5 mph - N/A   Clear
9:15 AM 79.2 °F - 67.6 °F 68% 30.15 in 10.0 mi SW 5.8 mph - N/A   Clear
9:35 AM 81.5 °F 83.9 °F 66.7 °F 61% 30.15 in 10.0 mi SW 6.9 mph - N/A   Clear
9:55 AM 82.2 °F 84.6 °F 66.4 °F 59% 30.14 in 10.0 mi SW 5.8 mph - N/A   Clear
3:54 PM 91.4 °F 91.4 °F 60.8 °F 36% 30.09 in 10.0 mi SW 5.8 mph - N/A   Unknown